Location: Rounton
(54.4000°N, 1.3500°W)
Time: 20:14:40
(UTC+01:00)

deb Delta 126 - Pass Details

Date: 01 July 2022
Orbit: 1120 x 1970 km, 101.5° (Epoch: 17 August)

Event Time Altitude Azimuth Distance (km) Brightness Sun altitude
Rises 23:04:15 0° 24° (NNE) 5,007 ? -8.0°
Reaches altitude 10° 23:07:17 10° 18° (NNE) 4,108 ? -8.2°
Maximum altitude 23:16:35 44° 312° (NW) 2,477 ? -8.8°
Drops below altitude 10° 23:26:34 10° 246° (WSW) 4,395 ? -9.4°
Sets 23:29:56 0° 241° (WSW) 5,383 ? -9.6°
